Theta_e
361 360 357 358 367 361 365 363 356 355 357 352 352 357 360 360 364 372 352 353 353 352 351 353 353 352 346 336 345 349 350 351 351 353 353 354 354 354 351 354 354 354 355 354 354 352 351 350 351
357 357 351 359 359 363 367 358 359 357 356 355 355 357 360 363 355 355 354 352 353 352 351 351 349 347 343 340 346 351 355 355 353 354 352 354 354 352 354 353 352 354 355 354 354 352 350 350 351
353 353 357 357 357 362 363 359 359 356 354 355 357 355 357 358 353 355 353 353 353 352 352 351 347 347 346 346 347 351 354 354 352 351 354 352 354 354 353 351 354 355 354 355 353 353 349 349 352
352 355 357 350 354 358 355 357 356 356 356 354 354 361 354 352 354 354 353 353 353 354 353 348 346 349 349 350 347 352 354 354 354 354 355 355 355 354 352 350 353 353 352 352 354 353 353 349 350
348 352 349 348 351 354 354 354 351 355 358 357 354 359 359 355 354 353 353 353 353 354 353 351 351 352 353 353 353 354 354 353 352 351 352 352 351 350 351 350 351 353 354 353 353 353 352 352 350
348 350 347 347 347 351 352 353 353 354 355 355 356 359 360 355 354 353 352 352 351 351 351 352 350 350 351 354 354 354 354 354 354 353 353 350 351 351 351 352 351 350 351 352 352 352 352 352 348
349 347 349 346 346 349 354 353 353 355 355 356 353 360 359 355 354 353 353 352 352 349 347 348 349 351 350 351 355 354 355 355 349 348 344 341 342 343 344 349 352 353 352 352 350 348 347 346 344
347 348 343 345 345 353 354 354 354 355 358 353 354 360 362 356 354 353 352 352 352 349 347 347 348 348 348 349 348 348 350 347 346 344 342 341 333 340 341 343 347 351 351 350 348 344 341 342 342
344 344 345 345 345 352 352 353 354 354 357 357 355 353 354 354 353 353 352 351 351 348 346 346 347 347 347 349 351 348 348 346 343 339 343 340 336 335 340 337 339 342 345 349 348 347 343 339 338
345 343 344 345 346 349 351 352 355 356 357 359 356 354 353 354 354 352 352 351 351 349 346 345 346 347 348 347 350 352 352 349 340 336 337 336 340 335 339 336 338 340 341 342 342 348 345 339 344
343 345 345 346 346 349 350 354 353 352 352 355 359 358 355 353 353 351 351 350 348 348 346 345 346 347 348 349 351 351 350 348 344 335 336 334 336 338 334 332 339 342 347 345 344 345 343 343 344
342 343 344 346 348 349 349 353 355 350 351 351 353 354 353 353 352 350 350 349 348 347 347 345 347 348 348 348 349 350 350 346 344 339 335 336 335 337 341 340 338 342 345 343 342 343 344 345 343
340 340 341 345 347 348 349 353 357 354 350 351 352 352 352 351 350 349 349 348 349 347 346 346 347 349 349 350 348 350 348 338 337 342 339 343 342 339 337 343 344 343 339 339 339 342 344 342 341
338 338 341 346 348 348 350 353 354 356 350 352 352 352 351 350 349 349 350 350 350 350 348 346 348 349 349 350 350 350 348 342 336 339 342 341 345 342 341 343 345 346 345 343 343 343 344 341 340
337 338 340 345 347 349 348 351 352 356 351 352 352 352 352 352 350 351 351 352 353 353 352 350 347 348 350 350 350 351 347 344 338 341 340 342 347 347 342 347 345 347 347 346 342 344 344 342 339
337 338 340 343 347 348 348 349 357 356 354 353 351 352 352 353 352 352 352 352 352 353 353 353 351 348 349 350 350 350 350 344 345 341 343 344 344 348 349 349 349 346 347 348 345 343 342 339 339
338 338 338 339 343 344 346 344 353 356 356 352 352 351 352 352 353 353 354 354 354 354 354 354 353 351 351 352 351 351 341 348 347 347 346 345 345 349 349 348 348 349 344 348 347 346 343 341 341
339 338 338 338 341 345 345 341 351 355 356 355 352 351 351 351 352 352 353 353 354 354 355 356 355 354 353 354 354 352 350 351 350 348 349 348 346 346 346 344 347 349 343 348 348 350 350 348 346
338 337 335 336 336 343 344 342 345 353 354 355 355 352 351 350 351 352 353 353 353 354 355 356 358 357 357 357 356 354 354 354 354 353 348 347 347 345 345 347 347 347 346 349 349 350 350 349 348
337 335 336 337 338 342 341 339 342 346 351 351 352 355 352 352 354 348 340 344 351 354 355 356 358 359 359 358 357 356 356 355 355 355 355 353 349 349 348 349 350 348 349 349 349 349 350 349 347
337 335 335 337 338 337 337 336 341 346 348 351 351 352 353 354 351 345 338 338 342 350 354 356 358 359 359 358 357 357 356 356 356 355 355 355 353 351 348 349 351 350 350 349 348 345 350 350 349
337 332 333 333 334 336 334 335 337 345 346 350 352 353 353 354 348 345 341 339 343 348 352 354 357 358 359 359 357 357 356 356 355 354 356 356 355 354 353 352 353 352 351 349 347 349 348 350 349
334 333 333 333 334 334 336 335 345 344 349 353 355 354 351 353 353 348 344 345 344 350 351 353 355 357 358 357 358 357 357 355 355 356 356 355 357 357 355 354 354 353 353 350 349 349 349 349 349
332 333 334 334 334 336 337 338 338 346 349 348 352 355 351 352 354 353 351 351 352 351 351 351 355 357 358 358 358 358 358 357 357 357 357 357 356 356 356 355 355 354 354 353 352 351 350 350 349
333 334 336 337 336 337 339 341 347 347 346 346 351 356 354 354 354 354 354 353 353 353 353 353 356 359 359 358 358 357 357 358 358 355 353 354 354 355 356 357 356 355 354 354 354 353 352 350 350
336 334 335 337 334 335 342 341 348 347 348 349 353 354 355 355 356 355 354 353 350 353 356 356 358 358 359 358 358 357 355 351 345 347 350 353 353 355 356 359 357 356 356 356 356 354 353 351 350
334 333 332 331 332 334 338 340 344 346 348 351 356 357 357 357 358 358 353 352 354 350 350 353 358 360 360 358 356 352 349 349 348 348 350 350 353 355 358 357 357 357 358 357 356 355 354 353 352
333 332 332 331 336 337 338 338 337 348 350 353 357 358 357 355 354 354 355 355 352 350 351 354 357 357 356 353 351 351 352 348 349 349 348 350 352 357 359 359 358 358 359 358 356 355 354 355 353
331 332 332 332 333 336 336 338 345 348 348 350 357 356 354 357 357 354 354 354 354 353 351 349 352 354 354 353 354 354 352 353 355 355 355 356 358 359 361 360 359 359 358 357 356 357 355 354 354
334 334 334 337 343 338 338 339 347 347 345 350 356 354 349 353 356 354 352 349 350 351 352 351 351 350 350 351 351 348 350 353 352 351 349 349 354 360 361 361 359 358 358 357 354 354 354 354 353
Wind_Speed
7 3 2 5 3 7 13 10 3 9 10 8 5 6 12 12 8 8 17 14 23 22 21 19 23 24 25 25 24 23 21 20 19 18 17 17 16 16 17 14 14 13 14 15 15 15 16 17 16
2 1 4 3 3 8 10 11 13 12 11 9 8 4 6 11 10 15 11 18 21 22 22 20 23 24 24 24 21 20 18 17 17 17 16 15 14 15 16 15 13 13 13 14 14 14 15 15 16
2 2 4 2 8 9 9 7 9 10 5 3 5 10 7 4 13 6 20 20 20 20 20 20 21 22 21 20 19 18 16 16 15 15 15 14 14 15 15 15 14 15 14 14 13 13 13 13 14
5 5 4 10 12 8 10 5 5 5 11 7 8 10 6 11 4 14 21 20 20 19 18 20 20 19 19 17 17 16 15 15 15 15 14 14 14 13 14 15 14 14 12 13 12 12 12 11 11
4 4 8 11 13 10 8 6 7 8 7 6 3 12 11 10 16 23 21 20 20 20 18 19 19 18 16 16 15 15 15 15 14 13 13 13 13 13 14 15 14 14 13 12 11 9 10 10 9
3 4 9 12 12 7 6 4 7 11 12 14 17 13 7 11 20 20 19 18 18 19 19 17 16 16 16 15 15 15 14 12 12 12 12 11 10 11 11 13 12 12 12 11 9 9 7 6 6
4 5 10 13 10 12 8 4 6 9 7 12 8 8 8 14 19 18 18 17 16 17 17 17 16 16 16 15 14 14 13 12 10 9 11 9 8 3 6 8 9 9 9 8 8 7 6 4 4
3 3 15 13 11 12 5 6 6 7 11 9 1 7 11 18 20 18 18 18 16 16 17 17 15 15 14 13 14 12 11 11 10 9 6 6 13 7 2 4 5 6 5 4 5 5 5 4 2
2 3 10 12 15 11 6 8 6 5 8 9 4 10 23 26 20 18 18 16 15 15 16 16 16 15 14 13 11 11 10 11 14 13 4 5 7 12 6 2 1 2 3 4 4 4 4 4 3
3 5 9 6 7 8 7 6 8 5 8 9 13 18 25 25 21 21 20 19 19 17 17 16 16 15 14 12 11 11 10 12 12 15 14 9 8 13 11 8 6 5 6 6 7 6 6 4 5
3 4 5 7 5 5 7 8 5 5 5 8 16 20 21 23 21 19 17 17 18 17 17 16 16 15 14 12 12 11 11 12 12 16 19 15 15 14 17 17 9 9 9 9 10 9 8 6 6
1 2 4 4 3 4 6 8 9 10 9 12 17 20 19 18 17 17 17 16 16 17 16 15 16 15 15 12 12 12 11 12 14 14 15 17 18 17 15 15 16 13 10 11 11 10 9 8 8
2 3 2 2 5 7 7 7 10 10 12 17 17 17 17 15 15 14 13 13 14 15 16 16 17 16 16 15 13 14 17 17 15 13 15 15 18 18 17 15 14 14 18 17 16 15 12 10 9
5 1 3 4 5 6 6 9 5 9 13 17 18 16 15 14 15 14 13 13 14 14 15 17 18 18 17 17 14 16 18 17 16 16 16 18 17 20 20 19 17 13 12 14 16 17 14 11 10
3 4 4 3 5 3 5 8 4 16 15 16 16 15 15 12 13 12 12 11 11 11 11 14 16 16 17 15 13 14 12 21 22 13 17 18 17 17 20 15 12 13 11 11 11 15 15 14 12
3 3 4 6 6 3 9 9 12 16 15 15 14 14 13 14 14 12 10 9 9 9 11 13 14 15 16 14 14 14 18 20 18 20 16 18 19 17 15 13 11 12 11 10 10 13 16 15 14
4 2 1 4 7 3 9 7 12 15 13 14 14 13 13 13 13 11 10 10 10 11 12 14 14 14 15 15 15 16 17 16 17 18 17 17 17 19 15 14 14 12 11 11 12 12 14 16 17
1 3 1 5 4 7 7 4 9 13 14 13 14 13 12 12 11 12 11 11 12 13 13 14 14 14 14 14 16 15 16 14 14 18 16 19 21 18 20 19 17 13 16 13 14 11 13 15 17
6 7 6 2 1 5 7 8 6 10 12 12 13 14 13 11 8 7 2 10 14 13 14 16 17 16 17 17 17 18 18 16 15 16 18 22 18 17 18 17 17 16 15 14 12 13 13 13 13
7 7 2 5 4 5 2 7 1 4 9 11 12 13 13 14 10 6 1 6 15 14 16 17 19 17 19 17 15 14 12 13 12 10 11 13 13 15 17 15 16 16 15 15 11 12 10 11 11
9 5 5 7 6 2 4 10 8 9 4 6 10 10 14 15 14 13 16 13 14 14 15 16 17 17 18 16 15 13 11 11 11 12 12 12 13 14 16 17 15 17 15 15 14 13 14 10 9
8 3 4 5 9 3 3 5 6 5 5 5 8 12 14 17 17 13 14 9 7 9 10 11 13 15 15 16 17 17 14 13 10 11 10 10 12 12 15 17 18 17 17 18 17 14 14 13 13
6 4 0 1 6 7 8 7 10 4 7 9 8 3 9 18 22 19 17 13 10 7 10 9 11 14 12 12 16 15 15 12 10 11 11 12 12 14 15 17 17 17 17 17 17 16 16 14 15
5 6 5 5 7 11 6 7 7 5 4 6 10 8 7 9 19 17 20 15 14 10 10 9 10 10 9 9 11 13 12 10 12 10 12 13 13 14 17 16 16 16 17 16 16 17 17 16 16
13 11 8 6 7 1 5 6 10 6 5 5 7 10 10 10 10 10 9 10 9 6 6 6 6 6 5 6 7 8 9 10 12 13 14 13 12 12 15 17 17 17 18 17 16 17 18 19 19
12 11 7 4 7 5 5 5 7 6 7 8 8 10 11 10 11 11 8 2 3 4 7 5 2 2 2 3 4 4 7 7 11 11 10 10 11 11 12 16 17 16 17 17 18 17 18 18 20
8 10 7 10 4 6 4 4 10 8 7 8 10 11 10 9 10 8 8 11 6 6 6 7 5 4 2 2 3 3 6 9 9 9 9 10 11 11 11 13 16 16 16 17 17 18 18 19 19
8 2 6 5 3 9 6 3 5 7 10 9 10 12 12 9 9 9 11 11 7 8 8 7 6 4 3 0 2 4 4 7 9 9 13 14 14 12 11 11 12 12 14 15 17 18 18 19 19
7 10 6 5 5 7 6 3 10 6 3 11 11 11 10 10 11 11 12 12 9 7 6 6 5 5 5 4 4 5 5 6 7 8 10 11 10 10 10 9 9 9 11 13 15 18 18 18 19
3 2 6 8 10 3 8 4 8 6 5 7 10 11 9 8 9 11 11 9 7 6 5 6 5 7 7 6 5 5 5 6 7 6 5 6 6 5 6 7 8 9 10 11 13 15 18 20 19
Wind_Direction
135 166 233 229 215 90 64 76 69 72 81 58 79 1 66 33 11 90 129 132 136 135 136 132 136 144 147 147 144 141 142 143 144 146 137 132 132 128 129 125 126 122 118 116 113 111 112 113 115
176 233 224 267 68 80 74 77 68 60 91 102 77 112 52 68 62 116 124 139 137 138 140 136 141 145 148 152 151 145 143 143 140 145 142 138 133 127 126 126 131 130 124 121 117 113 115 115 116
259 257 291 104 50 63 81 65 71 77 87 58 111 51 35 78 120 119 134 140 137 140 140 145 147 147 146 148 149 144 146 147 145 145 143 143 138 133 130 127 132 129 126 122 119 117 115 118 116
299 188 219 62 71 64 73 95 86 117 87 62 108 84 86 108 102 130 139 139 141 143 142 151 153 150 149 151 154 149 148 145 144 143 142 139 137 133 133 127 135 127 127 124 121 121 118 120 119
245 255 88 69 74 76 74 77 65 78 72 65 67 103 106 83 117 135 142 143 145 140 144 151 153 153 154 155 154 153 150 150 152 151 145 142 134 136 137 134 137 133 127 128 127 126 130 132 131
198 267 70 66 70 68 75 90 65 75 97 96 102 104 80 114 136 141 146 149 142 144 148 150 154 155 155 153 155 157 155 154 148 144 138 129 129 131 137 137 139 136 136 136 138 139 141 147 151
27 43 68 75 78 74 60 58 60 79 98 72 127 104 109 135 143 145 148 148 146 148 146 151 156 157 155 155 158 158 156 156 147 133 123 122 103 111 122 134 129 135 140 142 145 147 148 158 162
343 274 79 64 68 74 90 81 82 49 79 109 183 148 151 147 147 150 150 152 150 157 154 155 158 160 162 166 166 164 151 142 127 107 107 131 175 149 149 138 128 143 148 160 162 163 167 181 195
303 78 74 64 63 87 124 91 84 92 122 58 60 125 135 147 150 155 150 159 157 166 164 165 166 168 170 170 173 164 166 143 152 160 117 139 215 183 197 195 174 206 203 197 203 201 198 209 244
317 46 49 13 53 69 87 65 106 117 120 97 95 104 134 149 157 166 165 167 175 171 176 173 174 172 173 178 173 180 173 167 188 200 203 208 212 220 252 261 257 234 240 237 230 232 232 248 249
67 40 25 57 20 67 98 102 87 144 116 136 139 140 152 158 169 170 174 175 179 177 181 180 181 179 179 183 179 184 184 171 195 220 220 242 217 229 236 253 270 244 230 233 221 233 239 235 253
263 340 327 28 106 117 106 114 85 50 67 119 144 149 158 168 172 175 178 179 182 184 187 186 186 187 190 187 191 194 190 195 189 211 223 231 237 244 248 254 254 251 233 239 243 246 244 242 247
318 6 11 71 138 111 135 95 103 94 108 129 138 153 159 168 167 174 178 177 188 189 194 193 192 194 195 196 198 198 206 216 223 238 236 240 242 243 245 250 247 245 239 238 241 238 232 240 247
345 314 53 137 141 145 145 134 142 125 136 141 151 156 158 166 170 169 180 187 188 192 196 199 200 200 200 203 208 212 221 225 245 243 253 251 249 244 256 250 244 245 241 234 236 230 230 236 243
300 221 162 152 164 130 188 165 131 150 154 154 164 164 159 169 175 179 186 193 194 197 192 201 207 206 204 206 213 225 234 235 245 249 246 251 249 243 249 247 238 246 237 242 236 223 225 235 245
266 238 199 138 179 157 239 109 139 161 163 163 171 168 168 175 184 188 188 205 206 215 207 209 206 207 206 204 210 221 228 233 240 245 245 251 247 247 243 248 248 249 247 231 226 219 222 233 242
226 80 313 158 202 198 238 100 148 172 179 170 174 173 178 178 186 191 205 208 220 216 217 219 218 214 209 204 210 214 232 237 234 243 248 247 248 240 244 241 245 241 246 242 232 225 226 235 244
125 295 260 290 122 224 217 240 143 182 191 186 176 171 178 176 182 182 211 225 224 231 228 231 227 222 214 210 207 222 234 244 240 238 240 251 255 248 236 236 232 244 245 240 229 226 233 241 248
304 289 295 327 228 237 238 261 130 177 203 198 189 174 175 174 149 145 318 277 239 232 238 234 230 224 214 214 212 216 223 229 238 242 241 240 249 240 235 243 235 234 233 239 236 238 235 235 231
270 283 104 99 151 226 187 257 112 168 204 221 205 176 174 149 123 126 164 257 256 234 236 236 236 228 221 221 226 229 240 238 241 244 242 233 235 228 224 230 235 222 224 231 236 240 238 233 222
218 266 116 93 151 186 259 239 189 134 178 206 202 191 167 156 150 153 212 213 228 241 240 240 242 237 231 225 227 225 230 242 239 240 245 245 235 230 223 219 224 232 225 226 232 234 233 225 222
226 123 120 132 251 23 254 312 154 129 123 135 162 182 187 164 167 183 228 221 216 234 248 246 244 239 235 227 230 231 234 231 236 246 235 228 230 226 222 221 221 220 225 227 221 229 227 234 233
60 125 83 271 276 276 163 266 121 150 123 102 82 104 213 183 174 198 215 222 240 266 248 236 229 234 232 229 232 236 243 253 258 249 246 249 242 234 225 222 223 228 226 229 225 220 229 229 242
161 154 188 219 270 253 86 279 123 68 68 102 92 90 122 173 166 204 224 245 264 257 236 224 220 230 236 237 237 243 250 257 267 267 263 253 244 237 229 220 220 225 231 231 226 227 227 234 239
223 217 229 224 207 31 94 249 56 102 79 72 87 112 122 138 153 183 209 221 218 205 202 213 215 226 234 227 233 253 260 261 272 274 271 263 253 242 233 218 219 223 223 232 227 223 228 228 233
213 282 270 240 251 201 137 238 99 93 95 106 101 123 128 143 138 146 149 205 205 184 152 159 177 189 187 214 205 224 255 267 287 278 261 247 259 261 249 227 223 225 224 223 226 229 229 228 228
168 230 348 291 218 281 140 143 176 148 123 114 111 125 132 119 106 93 90 90 125 160 129 117 107 102 119 177 185 210 260 268 274 264 248 254 258 262 252 228 223 228 227 225 224 228 230 231 232
276 47 209 204 194 245 155 270 301 152 148 139 136 132 135 132 128 120 98 93 101 105 96 96 95 90 85 118 294 303 283 254 269 265 253 259 265 262 254 242 229 232 231 230 224 231 233 232 235
177 210 231 313 306 302 252 173 69 88 127 153 143 138 135 135 126 116 98 91 90 91 86 84 83 82 70 52 9 339 324 304 288 272 265 263 260 258 260 244 240 239 240 240 231 234 238 231 237
305 314 212 237 170 226 324 356 58 67 146 132 138 147 125 116 120 119 109 94 88 77 63 64 53 52 48 32 2 337 324 316 304 298 318 323 304 277 253 244 244 247 252 235 231 237 239 234 234